Seattle, WA

10:30 AM PDT on July 24, 2016 (GMT -0700)
Boeing Field-King County International

Weather History for KBFI - February, 2013

Change the Weather History Date:

Tuesday, February 26, 2013

  Actual Average Record
Temperature  
Mean Temperature 44 °F -  
Max Temperature 48 °F 51 °F 67 °F (1992)
Min Temperature 39 °F 37 °F 2 °F (1951)
Degree Days  
Heating Degree Days 22    
Moisture  
Dew Point 32 °F    
Average Humidity 62    
Maximum Humidity 79    
Minimum Humidity 46    
Precipitation  
Precipitation 0.01 in - - ()
Sea Level Pressure  
Sea Level Pressure 30.29 in    
Wind  
Wind Speed 8 mph (SSE)    
Max Wind Speed 13 mph    
Max Gust Speed -    
Visibility 10 miles    
Events Rain    
Averages and records for this station are not official NWS values.
T = Trace of Precipitation, MM = Missing Value Source: NWS Daily Summary

Daily Weather History Graph

Daily Weather History Graph

Search for Another Location

Airport or City:

Trip Planner

Search our weather history database for the weather conditions in past years. The results will help you decide how hot, cold, wet, or windy it might be!

Date:

Astronomy

Feb. 26, 2013 Rise Set
Actual Time 6:54 AM PST 5:50 PM PST
Civil Twilight 6:23 AM PST 6:21 PM PST
Nautical Twilight 5:48 AM PST 6:56 PM PST
Astronomical Twilight 5:12 AM PST 7:32 PM PST
Moon 7:22 PM PST (2/26) 6:52 AM PST (2/26)
Length of Visible Light 11h 57m
Length of Day
10h 55m
Full, 99% of the Moon is Illuminated
Feb 26
Full
Mar 4
Last Quarter
Mar 11
New
Mar 19
First Quarter
Mar 27
Full

Hourly Weather History & Observations

Time (PST) Temp. Windchill Dew Point Humidity Pressure Visibility Wind Dir Wind Speed Gust Speed Precip Events Conditions
12:53 AM 39.9 °F 34.5 °F 33.1 °F 77% 30.32 in 10.0 mi SE 8.1 mph - N/A   Overcast
1:53 AM 41.0 °F 35.8 °F 33.1 °F 73% 30.33 in 10.0 mi SSE 8.1 mph - N/A   Overcast
2:53 AM 41.0 °F 35.8 °F 33.1 °F 73% 30.33 in 10.0 mi SSE 8.1 mph - N/A   Overcast
3:53 AM 39.9 °F 34.5 °F 34.0 °F 79% 30.33 in 10.0 mi SE 8.1 mph - N/A   Overcast
4:53 AM 41.0 °F 36.4 °F 34.0 °F 76% 30.34 in 10.0 mi SSE 6.9 mph - N/A   Overcast
5:53 AM 41.0 °F 36.4 °F 34.0 °F 76% 30.35 in 10.0 mi SSE 6.9 mph - N/A   Overcast
6:53 AM 41.0 °F 36.4 °F 33.1 °F 73% 30.35 in 10.0 mi SSE 6.9 mph - N/A   Mostly Cloudy
7:53 AM 42.1 °F 37.1 °F 33.1 °F 70% 30.35 in 10.0 mi SSE 8.1 mph - 0.00 in Rain Light Rain
8:53 AM 44.1 °F 39.0 °F 33.1 °F 65% 30.36 in 10.0 mi South 9.2 mph - 0.00 in   Mostly Cloudy
9:53 AM 46.0 °F 41.0 °F 32.0 °F 58% 30.35 in 10.0 mi South 10.4 mph - 0.00 in   Mostly Cloudy
10:53 AM 48.0 °F - 32.0 °F 54% 30.33 in 10.0 mi South 12.7 mph - N/A   Overcast
11:53 AM 46.9 °F - 30.9 °F 54% 30.31 in 10.0 mi South 10.4 mph - N/A   Overcast
12:53 PM 48.9 °F - 30.0 °F 48% 30.29 in 10.0 mi SSE 11.5 mph - N/A   Overcast
1:53 PM 48.9 °F - 28.9 °F 46% 30.27 in 10.0 mi South 11.5 mph - N/A   Overcast
2:53 PM 48.9 °F - 30.9 °F 50% 30.26 in 10.0 mi SSE 11.5 mph - N/A   Mostly Cloudy
3:53 PM 48.9 °F - 28.9 °F 46% 30.25 in 10.0 mi South 9.2 mph - N/A   Overcast
4:53 PM 48.0 °F - 30.9 °F 52% 30.24 in 10.0 mi SSE 11.5 mph - N/A   Overcast
5:53 PM 48.0 °F - 30.9 °F 52% 30.23 in 10.0 mi SSE 8.1 mph - N/A   Overcast
6:53 PM 48.0 °F - 30.9 °F 52% 30.23 in 10.0 mi SSE 8.1 mph - N/A   Overcast
7:53 PM 46.0 °F 41.0 °F 30.9 °F 56% 30.22 in 10.0 mi South 10.4 mph - 0.00 in   Overcast
8:53 PM 46.0 °F 43.1 °F 33.1 °F 61% 30.22 in 10.0 mi SSE 5.8 mph - N/A   Overcast
9:53 PM 46.0 °F 43.1 °F 33.1 °F 61% 30.21 in 10.0 mi ESE 5.8 mph - N/A   Overcast
10:53 PM 46.0 °F 43.1 °F 33.1 °F 61% 30.20 in 10.0 mi ESE 5.8 mph - N/A   Overcast
11:53 PM 45.0 °F 43.5 °F 36.0 °F 71% 30.21 in 9.0 mi SW 3.5 mph - 0.01 in Rain Light Rain